Location: Le Rocchette
(44.3500°N, 7.8333°E)
Time: 23:40:27
(UTC+00:00)

NOSS 3-3 (C) - Pass Details

Date: 17 November 2019
Orbit: 844 x 1368 km, 63.4° (Epoch: 30 November)

Event Time Altitude Azimuth Distance (km) Brightness Sun altitude
Exits shadow 04:51:53 21° 251° (WSW) 1,917 5.0 -16.9°
Maximum altitude 04:55:41 49° 317° (NW) 1,229 4.2 -16.2°
Drops below altitude 10° 05:02:10 10° 31° (NNE) 2,883 6.7 -15.1°
Sets 05:05:06 0° 37° (NE) 3,927 7.5 -14.6°
